OpenBCM V1.13 (Linux)

Packet Radio Mailbox

DB0FHN

[JN59NK Nuernberg]

 Login: GUEST





  
LU9DCE > KEP      19.08.19 20:33l 240 Lines 11921 Bytes #999 (0) @ WW
BID : 30143_LU9DCE
Read: DF7EAV DJ6UX GUEST
Subj: TLE 19 08
Path: DB0FHN<OE2XZR<OE1XAB<HG8LXL<XE1FH<LU9DCE
Sent: 190819/1800Z 30143@LU9DCE.TOR.BA.ARG.SOAM LinBPQ6.0.18

            __    _  _  ___  ____   ___  ____    ____  ____  ____
           (  )  / )( \/ _ \(    \ / __)(  __)  (  _ \(  _ \/ ___)
           / (_/\) \/ (\__  )) D (( (__  ) _)    ) _ ( ) _ (\___ \
           \____/\____/(___/(____/ \___)(____)  (____/(____/(____/
               ESTACION DE PACKET RADIO - BUENOS AIRES (GF05OM)
                   BOLETINES INFORMATIVOS PROGRAMADOS (BIP)
                  SLACKWARE LINUX - HELLOCODELINUX@GMAIL.COM
                          https://slacko.home.blog
+----------------------------------------------------------------------------+
OSCAR 7
1  7530U 74089B   19230.91400899 -.00000045 +00000-0 +21311-5 0  9991
2  7530 101.7490 197.9599 0011743 228.2813 195.1354 12.53639290047953
OSCAR 11 (UoSAT 2)
1 14781U 84021B   19230.96116362 +.00000023 +00000-0 +89768-5 0  9993
2 14781 097.6084 252.7728 0009914 114.5481 245.6767 14.83100823886848
OSCAR 19 (LUSAT)
1 20442U 90005G   19230.83759019 -.00000007 +00000-0 +13880-4 0  9995
2 20442 098.6511 172.7446 0011294 334.8319 025.2313 14.32930802545139
EYESAT A
1 22825U 93061C   19230.93057956 -.00000016 +00000-0 +11620-4 0  9999
2 22825 098.9070 220.9758 0008440 173.2155 186.9142 14.30064478350430
ITAMSAT
1 22826U 93061D   19230.91798396 -.00000025 +00000-0 +81151-5 0  9995
2 22826 098.9010 220.9467 0009164 162.6128 197.5369 14.30398195350657
RADIO ROSTO
1 23439U 94085A   19230.88987834 -.00000050 +00000-0 -21762-3 0  9995
2 23439 064.8195 017.1570 0145977 101.3659 260.3703 11.27568668014797
JAS 2
1 24278U 96046B   19230.92466330 -.00000033 +00000-0 -45012-6 0  9992
2 24278 098.5462 016.0460 0351349 081.2884 282.7879 13.53092756135836
TECHSAT 1B
1 25397U 98043D   19230.83413776 -.00000013 +00000-0 +13386-4 0  9994
2 25397 098.6907 170.2455 0000966 160.1915 199.9301 14.23669038096576
ISS (ZARYA)
1 25544U 98067A   19230.88596356 -.00000303 +00000-0 +27465-5 0  9991
2 25544 051.6440 050.2116 0007251 298.7365 204.5452 15.50382466184984
PCSAT
1 26931U 01043C   19230.95522893 -.00000068 +00000-0 +55833-5 0  9991
2 26931 067.0499 205.5895 0007470 274.2134 085.8113 14.30549602933660
SAUDISAT 1C
1 27607U 02058C   19230.40820191 -.00000075 +00000-0 +10433-4 0  9995
2 27607 064.5532 223.9621 0078885 244.8566 114.4339 14.75565080895867
CUTE-1
1 27844U 03031E   19230.93134512 +.00000016 +00000-0 +27120-4 0  9998
2 27844 098.6843 238.2295 0009181 207.8119 152.2569 14.22189960836956
CUBESAT XI 4
1 27848U 03031J   19230.94093025 +.00000012 +00000-0 +25152-4 0  9995
2 27848 098.6919 238.7520 0008885 220.2428 139.8092 14.21783807836818
MOZHAYETS 4
1 27939U 03042A   19230.89756259 +.00000073 +00000-0 +21640-4 0  9992
2 27939 098.0498 005.5487 0012042 229.4325 130.5843 14.66796957849516
CUBESAT XI 5
1 28895U 05043F   19230.35067042 +.00000073 +00000-0 +22940-4 0  9997
2 28895 097.9677 011.0305 0017423 156.0836 204.1180 14.63682635736359
CUTE-1.7+APD II
1 32785U 08021C   19230.79888815 +.00000114 +00000-0 +17935-4 0  9990
2 32785 097.5517 227.6373 0014556 063.4849 296.7859 14.88331880612702
DELFI C3
1 32789U 08021G   19230.90407398 +.00000448 +00000-0 +33927-4 0  9999
2 32789 097.4597 278.7098 0010500 276.6075 083.3958 15.07051212616083
SEEDS
1 32791U 08021J   19230.78150008 +.00000101 +00000-0 +15615-4 0  9991
2 32791 097.5289 233.6543 0014385 040.0749 320.1528 14.90851071613136
YUBELEINY
1 32953U 08025A   19230.73184218 +.00000020 +00000-0 +75656-4 0  9991
2 32953 082.5004 106.8098 0019552 358.5932 001.5087 12.43090705509895
PRISM (HITOMI)
1 33493U 09002B   19230.76848175 -.00000247 +00000-0 -15982-4 0  9998
2 33493 098.1201 154.0392 0015102 346.4145 013.6667 14.96701430574274
KKS-1 (KISEKI)
1 33499U 09002H   19230.91318372 +.00000038 +00000-0 +13712-4 0  9997
2 33499 098.3471 071.5630 0009592 019.6321 340.5255 14.75455281567825
SWISSCUBE
1 35932U 09051B   19230.88415104 +.00000064 +00000-0 +25492-4 0  9999
2 35932 098.5940 038.6674 0007207 347.2216 012.8797 14.56300750525641
BEESAT
1 35933U 09051C   19230.88342481 +.00000047 +00000-0 +21714-4 0  9991
2 35933 098.5963 040.4519 0005739 003.7212 356.4026 14.56387885525718
ITUPSAT 1
1 35935U 09051E   19230.90767488 +.00000044 +00000-0 +21247-4 0  9992
2 35935 098.6074 040.7104 0007949 357.5241 002.5914 14.55545691525517
XIWANG-1 (HOPE-1)
1 36122U 09072B   19230.69147058 -.00000017 +00000-0 +64883-4 0  9999
2 36122 100.0742 230.2099 0006710 208.7070 151.3667 13.16350911464905
TISAT 1
1 36799U 10035E   19230.94885784 +.00000043 +00000-0 +10535-4 0  9996
2 36799 098.1635 025.1597 0011048 241.8048 118.2054 14.91135054493693
JUGNU
1 37839U 11058B   19230.63846387 +.00000314 +00000-0 +25431-4 0  9992
2 37839 019.9621 325.1912 0018788 279.2906 221.1139 14.12655817405884
SRMSAT
1 37841U 11058D   19230.62258071 +.00000287 +00000-0 +12436-4 0  9991
2 37841 019.9734 023.3197 0011840 145.8922 298.3456 14.10636414405217
M-CUBED/EXP-1 PRIME
1 37855U 11061F   19230.74279418 +.00000700 +00000-0 +43150-4 0  9998
2 37855 101.7101 157.6760 0173040 255.8244 102.3689 15.05536443425497
HORYU 2
1 38340U 12025D   19230.66671836 +.00000100 +00000-0 +22644-4 0  9999
2 38340 098.3248 271.0731 0010199 292.3327 067.6800 14.75738093379747
STRAND 1
1 39090U 13009E   19230.51413481 +.00000012 +00000-0 +19226-4 0  9993
2 39090 098.4836 075.4373 0010310 105.8754 254.3568 14.35093329339091
SOMP
1 39134U 13015E   19230.93499927 +.00000795 +00000-0 +45482-4 0  9995
2 39134 064.8628 182.0062 0034289 294.1741 065.5803 15.20254245349529
BEESAT 3
1 39135U 13015F   19230.90006762 +.00000486 +00000-0 +33851-4 0  9998
2 39135 064.8684 201.2835 0029652 307.5326 052.3106 15.17546424349147
BEESAT 2
1 39136U 13015G   19230.36693140 +.00000351 +00000-0 +27641-4 0  9992
2 39136 064.8672 207.0010 0022230 303.3220 056.5777 15.16962222349378
CUBEBUG 1
1 39153U 13018D   19230.85768227 +.00000092 +00000-0 +18912-4 0  9990
2 39153 097.9804 328.6450 0016936 005.3951 354.7440 14.80583592340869
ZACUBE
1 39417U 13066B   19230.91230673 +.00000089 +00000-0 +17574-4 0  9991
2 39417 097.5622 240.9737 0058599 191.7757 168.2090 14.81135732310108
TRITON 1
1 39427U 13066M   19230.94285641 +.00000146 +00000-0 +31497-4 0  9994
2 39427 097.6816 204.5524 0113118 330.1052 029.3724 14.67865469307132
GOMX 1
1 39430U 13066Q   19230.85513410 +.00000099 +00000-0 +26645-4 0  9992
2 39430 097.7512 183.3948 0152418 061.5654 300.0812 14.59270812305524
HUMSAT D
1 39433U 13066T   19230.70226720 +.00000083 +00000-0 +13365-4 0  9992
2 39433 097.5489 275.7004 0032400 097.0531 263.4375 14.92227298310993
CUBEBUG 2
1 39440U 13066AA  19230.90503979 +.00000091 +00000-0 +19871-4 0  9993
2 39440 097.6046 225.7361 0078748 245.7183 113.5787 14.75873954307807
FUNCUBE 1
1 39444U 13066AE  19230.94654621 +.00000145 +00000-0 +24186-4 0  9997
2 39444 097.5600 243.0109 0057881 185.2082 174.8537 14.81958627308419
UWE-3
1 39446U 13066AG  19230.93977445 +.00000105 +00000-0 +20770-4 0  9991
2 39446 097.5825 232.8574 0068957 219.2295 140.3909 14.78408590307721
SPROUT
1 39770U 14029E   19230.85113040 +.00000127 +00000-0 +20157-4 0  9998
2 39770 097.8876 333.7568 0007756 243.9035 116.1384 14.87386908283921
UNISAT 6
1 40012U 14033C   19230.83948918 +.00000100 +00000-0 +22510-4 0  9998
2 40012 097.7497 094.7932 0056836 260.5014 098.9769 14.73995690277694
DUCHIFAT 1
1 40021U 14033M   19230.76328201 +.00000143 +00000-0 +20434-4 0  9997
2 40021 097.9226 155.5588 0012076 203.0996 156.9681 14.90660182280649
QB50P1
1 40025U 14033R   19230.78726122 +.00000171 +00000-0 +24226-4 0  9991
2 40025 097.9035 150.3699 0011474 213.3162 146.7333 14.88966634279903
CHUBUSAT 1
1 40300U 14070C   19230.80429683 +.00000233 +00000-0 +13115-4 0  9997
2 40300 097.3252 303.4365 0019173 196.9930 281.6274 15.22132535265315
NUDT-PHONESAT
1 40900U 15049B   19230.82367191 +.00001158 +00000-0 +52305-4 0  9998
2 40900 097.4368 239.5608 0012096 338.6977 145.6104 15.22936334216969
ZDPS 2A
1 40901U 15049C   19230.92378700 +.00000442 +00000-0 +25179-4 0  9992
2 40901 097.4600 235.8633 0013480 357.4211 088.8656 15.17786792216521
ZDPS 2B
1 40902U 15049D   19230.88373948 +.00000495 +00000-0 +27921-4 0  9992
2 40902 097.4550 233.2771 0013293 354.6787 056.3015 15.17622520216493
XW-2A
1 40903U 15049E   19230.85102631 +.00000917 +00000-0 +23500-4 0  9997
2 40903 097.3334 273.9492 0011742 284.9474 191.7462 15.41994564219679
KAITUO 1A
1 40904U 15049F   19230.81863662 +.00000386 +00000-0 +23893-4 0  9997
2 40904 097.4677 231.7834 0014813 002.8178 120.6687 15.15398090216257
OBJECT G
1 40905U 15049G   19230.93052310 +.00000396 +00000-0 +25152-4 0  9992
2 40905 097.4721 229.3823 0015644 356.5985 062.8697 15.14322162216149
XW-2C
1 40906U 15049H   19230.87189910 +.00000514 +00000-0 +30411-4 0  9999
2 40906 097.4689 231.9394 0014724 354.0006 123.5685 15.15719868216269
XW-2D
1 40907U 15049J   19230.95794231 +.00000083 +00000-0 +77990-5 0  9992
2 40907 097.4665 231.7051 0013712 350.6510 039.8524 15.15908205216299
LILACSAT 2
1 40908U 15049K   19230.80860015 +.00000445 +00000-0 +28202-4 0  9994
2 40908 097.4802 230.3312 0016157 357.0037 126.6040 15.13829948216055
XW-2F
1 40910U 15049M   19230.87163189 +.00000688 +00000-0 +37754-4 0  9993
2 40910 097.4638 233.6999 0014264 343.5295 100.8682 15.17366732216298
XW-2B
1 40911U 15049N   19230.87738723 +.00000490 +00000-0 +29070-4 0  9999
2 40911 097.4689 232.2840 0013851 352.3415 125.3143 15.15840226216172
KAITUO 1B
1 40912U 15049P   19230.81677463 +.00000666 +00000-0 +34399-4 0  9992
2 40912 097.4501 237.3785 0013788 324.8820 159.1557 15.19686936216593
TIANWANG 1C (TW-1C)
1 40926U 15051B   19230.93698007 +.00007061 +00000-0 +10029-3 0  9999
2 40926 097.1309 277.0554 0009678 138.5739 345.0598 15.56669314219684
